Time,TemperatureF,DewpointF,PressureIn,WindDirection,WindDirectionDegrees,WindSpeedMPH,WindSpeedGustMPH,Humidity,HourlyPrecipIn,Conditions,Clouds,dailyrainin,SoftwareType,DateUTC
2013-04-26 00:02:00,39.0,36.0,30.31,West,270,0.0,0.0,89,0.00,,,0.00,,2013-04-26 04:02:00,
2013-04-26 00:12:00,39.0,36.0,30.31,West,270,0.0,0.0,89,0.00,,,0.00,,2013-04-26 04:12:00,
2013-04-26 00:22:00,38.0,36.0,30.31,West,270,0.0,0.0,93,0.00,,,0.00,,2013-04-26 04:22:00,
2013-04-26 00:32:00,39.0,37.0,30.31,West,270,0.0,0.0,92,0.00,,,0.00,,2013-04-26 04:32:00,
2013-04-26 00:43:00,39.0,37.0,30.31,West,270,0.0,0.0,92,0.00,,,0.00,,2013-04-26 04:43:00,
2013-04-26 00:52:00,37.0,35.0,30.31,West,270,0.0,0.0,92,0.00,,,0.00,,2013-04-26 04:52:00,
2013-04-26 01:02:00,37.0,36.0,30.31,West,270,0.0,0.0,95,0.00,,,0.00,,2013-04-26 05:02:00,
2013-04-26 01:12:00,37.0,36.0,30.31,West,270,0.0,0.0,95,0.00,,,0.00,,2013-04-26 05:12:00,
2013-04-26 01:22:00,36.0,35.0,30.31,West,270,0.0,0.0,98,0.00,,,0.00,,2013-04-26 05:22:00,
2013-04-26 01:32:00,36.0,35.0,30.31,West,270,0.0,0.0,98,0.00,,,0.00,,2013-04-26 05:32:00,
2013-04-26 01:42:00,36.0,35.0,30.31,West,270,0.0,0.0,98,0.00,,,0.00,,2013-04-26 05:42:00,
2013-04-26 01:52:00,35.0,35.0,30.31,West,270,0.0,0.0,100,0.00,,,0.00,,2013-04-26 05:52:00,
2013-04-26 02:02:00,35.0,35.0,30.31,West,270,0.0,0.0,100,0.00,,,0.00,,2013-04-26 06:02:00,
2013-04-26 02:11:00,35.0,35.0,30.31,West,270,0.0,0.0,100,0.00,,,0.00,,2013-04-26 06:11:00,
2013-04-26 02:21:00,35.0,35.0,30.31,West,270,0.0,0.0,100,0.00,,,0.00,,2013-04-26 06:21:00,
2013-04-26 02:32:00,35.0,35.0,30.31,West,270,0.0,0.0,100,0.00,,,0.00,,2013-04-26 06:32:00,
2013-04-26 02:42:00,35.0,35.0,30.31,West,270,0.0,0.0,100,0.00,,,0.00,,2013-04-26 06:42:00,
2013-04-26 02:52:00,34.0,34.0,30.29,West,270,0.0,0.0,100,0.00,,,0.00,,2013-04-26 06:52:00,
2013-04-26 03:01:00,35.0,35.0,30.29,West,270,0.0,0.0,100,0.00,,,0.00,,2013-04-26 07:01:00,
2013-04-26 03:11:00,35.0,35.0,30.29,West,270,0.0,0.0,100,0.00,,,0.00,,2013-04-26 07:11:00,
2013-04-26 03:22:00,35.0,35.0,30.29,West,270,0.0,0.0,100,0.00,,,0.00,,2013-04-26 07:22:00,
2013-04-26 03:31:00,35.0,35.0,30.29,West,270,0.0,0.0,100,0.00,,,0.00,,2013-04-26 07:31:00,
2013-04-26 03:42:00,35.0,35.0,30.29,West,270,0.0,0.0,100,0.00,,,0.00,,2013-04-26 07:42:00,
2013-04-26 03:52:00,35.0,35.0,30.29,West,270,0.0,0.0,100,0.00,,,0.00,,2013-04-26 07:52:00,
2013-04-26 04:02:00,35.0,35.0,30.29,West,270,0.0,0.0,100,0.00,,,0.00,,2013-04-26 08:02:00,
2013-04-26 04:11:00,35.0,35.0,30.29,West,270,0.0,0.0,100,0.00,,,0.00,,2013-04-26 08:11:00,
2013-04-26 04:21:00,34.0,34.0,30.31,West,270,0.0,0.0,100,0.00,,,0.00,,2013-04-26 08:21:00,
2013-04-26 04:32:00,34.0,34.0,30.31,West,270,0.0,0.0,100,0.00,,,0.00,,2013-04-26 08:32:00,
2013-04-26 04:42:00,34.0,34.0,30.31,West,270,0.0,0.0,100,0.00,,,0.00,,2013-04-26 08:42:00,
2013-04-26 04:52:00,34.0,34.0,30.31,West,270,0.0,0.0,100,0.00,,,0.00,,2013-04-26 08:52:00,
2013-04-26 05:01:00,34.0,34.0,30.31,West,270,0.0,0.0,100,0.00,,,0.00,,2013-04-26 09:01:00,
2013-04-26 05:11:00,34.0,34.0,30.31,West,270,0.0,0.0,100,0.00,,,0.00,,2013-04-26 09:11:00,
2013-04-26 05:21:00,34.0,34.0,30.32,West,270,0.0,0.0,100,0.00,,,0.00,,2013-04-26 09:21:00,
2013-04-26 05:33:00,34.0,34.0,30.32,West,270,0.0,0.0,100,0.00,,,0.00,,2013-04-26 09:33:00,
2013-04-26 05:42:00,34.0,34.0,30.32,West,270,0.0,0.0,100,0.00,,,0.00,,2013-04-26 09:42:00,
2013-04-26 05:53:00,34.0,34.0,30.32,West,270,0.0,0.0,100,0.00,,,0.00,,2013-04-26 09:53:00,
2013-04-26 06:03:00,34.0,34.0,30.33,West,270,0.0,0.0,100,0.00,,,0.00,,2013-04-26 10:03:00,
2013-04-26 06:12:00,34.0,34.0,30.33,West,270,0.0,0.0,100,0.00,,,0.00,,2013-04-26 10:12:00,
2013-04-26 06:23:00,34.0,34.0,30.33,West,270,0.0,0.0,100,0.00,,,0.00,,2013-04-26 10:23:00,
2013-04-26 06:33:00,33.0,33.0,30.33,West,270,0.0,0.0,100,0.00,,,0.00,,2013-04-26 10:33:00,
2013-04-26 06:42:00,33.0,33.0,30.33,West,270,0.0,0.0,100,0.00,,,0.00,,2013-04-26 10:42:00,
2013-04-26 06:52:00,33.0,33.0,30.33,West,270,0.0,0.0,100,0.00,,,0.00,,2013-04-26 10:52:00,
2013-04-26 07:02:00,32.0,32.0,30.34,West,270,0.0,0.0,100,0.00,,,0.00,,2013-04-26 11:02:00,
2013-04-26 07:11:00,32.0,32.0,30.34,West,270,0.0,0.0,100,0.00,,,0.00,,2013-04-26 11:11:00,
2013-04-26 07:22:00,33.0,33.0,30.34,West,270,0.0,0.0,100,0.00,,,0.00,,2013-04-26 11:22:00,
2013-04-26 07:32:00,33.0,33.0,30.34,West,270,0.0,0.0,100,0.00,,,0.00,,2013-04-26 11:32:00,
2013-04-26 07:41:00,33.0,33.0,30.34,West,270,0.0,0.0,100,0.00,,,0.00,,2013-04-26 11:41:00,
2013-04-26 07:52:00,35.0,35.0,30.33,West,270,0.0,0.0,100,0.00,,,0.00,,2013-04-26 11:52:00,
2013-04-26 08:01:00,38.0,38.0,30.34,SE,135,2.0,4.0,100,0.00,,,0.00,,2013-04-26 12:01:00,
2013-04-26 08:11:00,38.0,38.0,30.34,SE,135,2.0,4.0,100,0.00,,,0.00,,2013-04-26 12:11:00,
2013-04-26 08:21:00,42.0,37.0,30.35,SE,135,4.0,6.0,83,0.00,,,0.00,,2013-04-26 12:21:00,
2013-04-26 08:32:00,44.0,38.0,30.35,ESE,112,4.0,7.0,79,0.00,,,0.00,,2013-04-26 12:32:00,
2013-04-26 08:41:00,44.0,38.0,30.35,ESE,112,4.0,7.0,79,0.00,,,0.00,,2013-04-26 12:41:00,
2013-04-26 08:52:00,44.0,38.0,30.35,ESE,112,4.0,7.0,79,0.00,,,0.00,,2013-04-26 12:52:00,
2013-04-26 09:01:00,47.0,37.0,30.36,SE,135,4.0,6.0,69,0.00,,,0.00,,2013-04-26 13:01:00,
2013-04-26 09:11:00,47.0,37.0,30.36,SE,135,4.0,6.0,69,0.00,,,0.00,,2013-04-26 13:11:00,
2013-04-26 09:21:00,49.0,39.0,30.37,East,90,1.0,2.0,67,0.00,,,0.00,,2013-04-26 13:21:00,
2013-04-26 09:32:00,50.0,37.0,30.38,SSE,157,3.0,5.0,60,0.00,,,0.00,,2013-04-26 13:32:00,
2013-04-26 09:41:00,50.0,37.0,30.38,SSE,157,3.0,5.0,60,0.00,,,0.00,,2013-04-26 13:41:00,
2013-04-26 09:52:00,52.0,38.0,30.39,SSE,157,4.0,10.0,58,0.00,,,0.00,,2013-04-26 13:52:00,
2013-04-26 10:01:00,54.0,38.0,30.41,South,180,6.0,10.0,54,0.00,,,0.00,,2013-04-26 14:01:00,
2013-04-26 10:11:00,54.0,38.0,30.41,South,180,6.0,10.0,54,0.00,,,0.00,,2013-04-26 14:11:00,
2013-04-26 10:21:00,54.0,38.0,30.42,SE,135,4.0,6.0,54,0.00,,,0.00,,2013-04-26 14:21:00,
2013-04-26 10:32:00,55.0,38.0,30.41,SE,135,2.0,4.0,53,0.00,,,0.00,,2013-04-26 14:32:00,
2013-04-26 10:41:00,55.0,38.0,30.41,SE,135,2.0,4.0,53,0.00,,,0.00,,2013-04-26 14:41:00,
2013-04-26 10:51:00,55.0,36.0,30.41,SE,135,6.0,9.0,49,0.00,,,0.00,,2013-04-26 14:51:00,
2013-04-26 11:01:00,55.0,36.0,30.41,SE,135,6.0,9.0,49,0.00,,,0.00,,2013-04-26 15:01:00,
2013-04-26 11:12:00,55.0,36.0,30.41,SE,135,6.0,9.0,49,0.00,,,0.00,,2013-04-26 15:12:00,
2013-04-26 11:21:00,59.0,38.0,30.42,East,90,6.0,9.0,45,0.00,,,0.00,,2013-04-26 15:21:00,
2013-04-26 11:33:00,59.0,37.0,30.42,SE,135,4.0,8.0,43,0.00,,,0.00,,2013-04-26 15:33:00,
2013-04-26 11:43:00,59.0,37.0,30.42,SE,135,4.0,8.0,43,0.00,,,0.00,,2013-04-26 15:43:00,
2013-04-26 11:53:00,61.0,38.0,30.43,South,180,4.0,7.0,42,0.00,,,0.00,,2013-04-26 15:53:00,
2013-04-26 12:03:00,61.0,38.0,30.43,South,180,4.0,7.0,42,0.00,,,0.00,,2013-04-26 16:03:00,
2013-04-26 12:12:00,61.0,38.0,30.43,South,180,4.0,7.0,42,0.00,,,0.00,,2013-04-26 16:12:00,
2013-04-26 12:23:00,62.0,38.0,30.44,South,180,5.0,7.0,41,0.00,,,0.00,,2013-04-26 16:23:00,
2013-04-26 12:33:00,62.0,37.0,30.44,SSE,157,3.0,6.0,40,0.00,,,0.00,,2013-04-26 16:33:00,
2013-04-26 12:42:00,62.0,37.0,30.44,SSE,157,3.0,6.0,40,0.00,,,0.00,,2013-04-26 16:42:00,
2013-04-26 12:52:00,62.0,37.0,30.44,SSE,157,3.0,6.0,40,0.00,,,0.00,,2013-04-26 16:52:00,
2013-04-26 13:02:00,62.0,37.0,30.44,ESE,112,3.0,6.0,39,0.00,,,0.00,,2013-04-26 17:02:00,
2013-04-26 13:12:00,62.0,37.0,30.44,ESE,112,3.0,6.0,39,0.00,,,0.00,,2013-04-26 17:12:00,
2013-04-26 13:21:00,63.0,39.0,30.43,SE,135,2.0,6.0,41,0.00,,,0.00,,2013-04-26 17:21:00,
2013-04-26 13:31:00,63.0,36.0,30.43,South,180,4.0,6.0,37,0.00,,,0.00,,2013-04-26 17:31:00,
2013-04-26 13:41:00,63.0,36.0,30.43,South,180,4.0,6.0,37,0.00,,,0.00,,2013-04-26 17:41:00,
2013-04-26 13:51:00,64.0,38.0,30.43,SE,135,2.0,4.0,38,0.00,,,0.00,,2013-04-26 17:51:00,
2013-04-26 14:02:00,64.0,36.0,30.42,SE,135,5.0,7.0,35,0.00,,,0.00,,2013-04-26 18:02:00,
2013-04-26 14:11:00,65.0,37.0,30.41,SE,135,4.0,9.0,35,0.00,,,0.00,,2013-04-26 18:11:00,
2013-04-26 14:22:00,65.0,37.0,30.41,SE,135,4.0,9.0,35,0.00,,,0.00,,2013-04-26 18:22:00,
2013-04-26 14:33:00,66.0,39.0,30.41,SE,135,1.0,2.0,37,0.00,,,0.00,,2013-04-26 18:33:00,
2013-04-26 14:41:00,66.0,39.0,30.41,SE,135,1.0,2.0,37,0.00,,,0.00,,2013-04-26 18:41:00,
2013-04-26 14:52:00,67.0,38.0,30.40,NE,45,4.0,7.0,35,0.00,,,0.00,,2013-04-26 18:52:00,
2013-04-26 15:01:00,67.0,39.0,30.39,South,180,2.0,5.0,36,0.00,,,0.00,,2013-04-26 19:01:00,
2013-04-26 15:11:00,67.0,39.0,30.39,South,180,2.0,5.0,36,0.00,,,0.00,,2013-04-26 19:11:00,
2013-04-26 15:22:00,68.0,39.0,30.38,WSW,247,0.0,2.0,35,0.00,,,0.00,,2013-04-26 19:22:00,
2013-04-26 15:31:00,68.0,39.0,30.38,South,180,2.0,5.0,35,0.00,,,0.00,,2013-04-26 19:31:00,
2013-04-26 15:41:00,68.0,39.0,30.38,South,180,2.0,5.0,35,0.00,,,0.00,,2013-04-26 19:41:00,
2013-04-26 15:52:00,69.0,40.0,30.38,SSW,202,2.0,3.0,35,0.00,,,0.00,,2013-04-26 19:52:00,
2013-04-26 16:02:00,67.0,40.0,30.39,SE,135,0.0,1.0,37,0.00,,,0.00,,2013-04-26 20:02:00,
2013-04-26 16:11:00,67.0,38.0,30.39,SSE,157,1.0,3.0,35,0.00,,,0.00,,2013-04-26 20:11:00,
2013-04-26 16:21:00,67.0,38.0,30.39,SSE,157,1.0,3.0,35,0.00,,,0.00,,2013-04-26 20:21:00,
2013-04-26 16:32:00,67.0,40.0,30.39,SW,225,1.0,2.0,37,0.00,,,0.00,,2013-04-26 20:32:00,
2013-04-26 16:42:00,67.0,40.0,30.39,SW,225,1.0,2.0,37,0.00,,,0.00,,2013-04-26 20:42:00,
2013-04-26 16:51:00,66.0,38.0,30.38,North,360,1.0,3.0,36,0.00,,,0.00,,2013-04-26 20:51:00,
2013-04-26 17:01:00,66.0,38.0,30.38,South,180,3.0,5.0,35,0.00,,,0.00,,2013-04-26 21:01:00,
2013-04-26 17:11:00,66.0,38.0,30.38,South,180,3.0,5.0,35,0.00,,,0.00,,2013-04-26 21:11:00,
2013-04-26 17:21:00,65.0,38.0,30.39,South,180,2.0,5.0,37,0.00,,,0.00,,2013-04-26 21:21:00,
2013-04-26 17:32:00,65.0,38.0,30.38,East,90,3.0,7.0,37,0.00,,,0.00,,2013-04-26 21:32:00,
2013-04-26 17:42:00,65.0,38.0,30.38,East,90,3.0,7.0,37,0.00,,,0.00,,2013-04-26 21:42:00,
2013-04-26 17:53:00,64.0,39.0,30.37,East,90,2.0,3.0,39,0.00,,,0.00,,2013-04-26 21:53:00,
2013-04-26 18:02:00,64.0,38.0,30.36,SE,135,2.0,7.0,38,0.00,,,0.00,,2013-04-26 22:02:00,
2013-04-26 18:12:00,64.0,38.0,30.36,SE,135,2.0,7.0,38,0.00,,,0.00,,2013-04-26 22:12:00,
2013-04-26 18:23:00,64.0,38.0,30.36,SE,135,4.0,6.0,38,0.00,,,0.00,,2013-04-26 22:23:00,
2013-04-26 18:33:00,63.0,37.0,30.35,East,90,5.0,8.0,38,0.00,,,0.00,,2013-04-26 22:33:00,
2013-04-26 18:42:00,63.0,37.0,30.35,East,90,5.0,8.0,38,0.00,,,0.00,,2013-04-26 22:42:00,
2013-04-26 18:52:00,63.0,38.0,30.34,ESE,112,5.0,6.0,39,0.00,,,0.00,,2013-04-26 22:52:00,
2013-04-26 19:02:00,63.0,38.0,30.33,SE,135,3.0,6.0,39,0.00,,,0.00,,2013-04-26 23:02:00,
2013-04-26 19:11:00,63.0,38.0,30.33,SE,135,3.0,6.0,39,0.00,,,0.00,,2013-04-26 23:11:00,
2013-04-26 19:21:00,63.0,38.0,30.34,SSE,157,5.0,8.0,39,0.00,,,0.00,,2013-04-26 23:21:00,
2013-04-26 19:32:00,62.0,37.0,30.34,ESE,112,3.0,6.0,40,0.00,,,0.00,,2013-04-26 23:32:00,
2013-04-26 19:42:00,62.0,37.0,30.34,ESE,112,3.0,6.0,40,0.00,,,0.00,,2013-04-26 23:42:00,
2013-04-26 19:52:00,62.0,37.0,30.34,SE,135,4.0,6.0,40,0.00,,,0.00,,2013-04-26 23:52:00,
2013-04-26 20:01:00,62.0,38.0,30.34,SE,135,3.0,5.0,41,0.00,,,0.00,,2013-04-27 00:01:00,
2013-04-26 20:11:00,62.0,38.0,30.34,SE,135,3.0,5.0,41,0.00,,,0.00,,2013-04-27 00:11:00,
2013-04-26 20:21:00,61.0,38.0,30.33,SE,135,2.0,3.0,42,0.00,,,0.00,,2013-04-27 00:21:00,
2013-04-26 20:32:00,61.0,38.0,30.33,SSE,157,3.0,5.0,43,0.00,,,0.00,,2013-04-27 00:32:00,
2013-04-26 20:41:00,61.0,38.0,30.33,SSE,157,3.0,5.0,43,0.00,,,0.00,,2013-04-27 00:41:00,
2013-04-26 20:52:00,60.0,38.0,30.33,SSE,157,3.0,6.0,44,0.00,,,0.00,,2013-04-27 00:52:00,
2013-04-26 21:01:00,59.0,37.0,30.33,SE,135,0.0,0.0,44,0.00,,,0.00,,2013-04-27 01:01:00,
2013-04-26 21:12:00,59.0,37.0,30.33,SE,135,0.0,0.0,44,0.00,,,0.00,,2013-04-27 01:12:00,
2013-04-26 21:21:00,58.0,37.0,30.33,SSE,157,1.0,1.0,46,0.00,,,0.00,,2013-04-27 01:21:00,
2013-04-26 21:32:00,58.0,38.0,30.33,SSE,157,1.0,1.0,48,0.00,,,0.00,,2013-04-27 01:32:00,
2013-04-26 21:42:00,58.0,38.0,30.33,SSE,157,1.0,1.0,48,0.00,,,0.00,,2013-04-27 01:42:00,
2013-04-26 21:52:00,57.0,38.0,30.33,SE,135,0.0,0.0,48,0.00,,,0.00,,2013-04-27 01:52:00,
2013-04-26 22:01:00,56.0,39.0,30.31,SE,135,0.0,0.0,52,0.00,,,0.00,,2013-04-27 02:01:00,
2013-04-26 22:11:00,56.0,39.0,30.31,SE,135,0.0,0.0,52,0.00,,,0.00,,2013-04-27 02:11:00,
2013-04-26 22:22:00,55.0,38.0,30.29,SE,135,0.0,1.0,53,0.00,,,0.00,,2013-04-27 02:22:00,
2013-04-26 22:32:00,54.0,39.0,30.29,SE,135,0.0,0.0,57,0.00,,,0.00,,2013-04-27 02:32:00,
2013-04-26 22:42:00,54.0,39.0,30.29,SE,135,0.0,0.0,57,0.00,,,0.00,,2013-04-27 02:42:00,
2013-04-26 22:52:00,53.0,39.0,30.29,SE,135,0.0,0.0,60,0.00,,,0.00,,2013-04-27 02:52:00,
2013-04-26 23:02:00,52.0,40.0,30.29,SE,135,0.0,0.0,63,0.00,,,0.00,,2013-04-27 03:02:00,
2013-04-26 23:11:00,52.0,40.0,30.29,SE,135,0.0,0.0,63,0.00,,,0.00,,2013-04-27 03:11:00,
2013-04-26 23:22:00,52.0,41.0,30.31,SE,135,0.0,0.0,66,0.00,,,0.00,,2013-04-27 03:22:00,
2013-04-26 23:32:00,51.0,40.0,30.31,SE,135,0.0,0.0,67,0.00,,,0.00,,2013-04-27 03:32:00,
2013-04-26 23:42:00,51.0,40.0,30.31,SE,135,0.0,0.0,67,0.00,,,0.00,,2013-04-27 03:42:00,
2013-04-26 23:53:00,51.0,41.0,30.31,SE,135,0.0,0.0,68,0.00,,,0.00,,2013-04-27 03:53:00,